User: anonymous   Login
Location: Ladysmith
(45.4630°N, 91.1040°W)
Time: 01:10:33
(UTC-05:00)
Language:

SO-67 - Orbit

View from above orbital plane
View from above orbital plane
View from above satellite
View from above satellite

Ground track
Ground track

The orbit data is extracted from the following two-line orbital elements,

1 35870U 09049F   16182.76884505  .00004538  00000-0  85653-4 0  9997
2 35870  97.1186 197.4493 0001209  87.1033  29.2836 15.48967282378749
Epoch (UTC): 30 June 2016 18:27:08
Eccentricity: 0.0001209
inclination: 97.1186°
perigee height: 419 km
apogee height: 420 km
right ascension of ascending node: 197.4493°
argument of perigee: 87.1033°
revolutions per day: 15.48967282
mean anomaly at epoch: 29.2836°
orbit number at epoch: 37874

The dashed part of the orbit path shows where the satellite is in the earth's shadow,  

DLR